CZ-6A DEB, 54299

Orbit data source: Space-Track

CZ-6A DEB, 54299 is space debris in SSO originally from a launch on Fri, 11 Nov 2022 UTC launched from the Taiyaun Space Center, China (TSC). Debris objects in space refer to the collection of defunct objects orbiting the Earth. Examples of debris include non-operational satellites, rocket bodies, and fragments generated from explosions, collisions, or faulty payload assembly.

Loading next visibility...
Identifier
54299, 2022-151AS
Orbit
SSO
Country
Flag of CNCN / PRC
Related business
Manufacturer
SAST
Mission
Spacecraft
Bus & Motor
Unknown
Mass
Unknown
Launch date (UTC)
2022-11-11 (4 years ago)
Launch vehicle
Unknown
Launch site
Taiyaun Space Center, China (TSC)
Object type
Payload
Rocket body
Debris
Shape & HBR
Unknown shape, 0.1 m
Radar Cross Section
Medium (>0.1 m² and <1 m²)

Expand to show TLE details & history
Last TLE update: 18 hours ago

TLE from 18 hours ago
0 CZ-6A DEB
1 54299U 22151AS  26206.39347211  .00000039  00000-0  48362-4 0  9995
2 54299  98.8570 201.4030 0053193 241.6349 117.9450 14.07640277189506
Epoch: 2026-07-25T09:26Z
TLE epoch observation values (Epoch: 2026-07-25T09:26:35.990Z)
Latitude
-0.00007°
Longitude
116.64666°
Altitude
888.575 km
Speed
7.399 km/s
True Right ascension
13h 25m 36s
True Declination
0° 00' 00"
Sunlit
Object was in daylight at epoch
Visualization orbit readout
Latitude
Unknown
Longitude
Unknown
Altitude
Unknown
Speed
Unknown
Apparent Right ascension
Unknown
Apparent Declination
Unknown
Sunlit
N/A
Visualization observer readout
Local Sidereal Time
16:52:50
Azimuth
Unknown
Elevation
Unknown
Doppler factor
Unknown
Orbital elements
Apogee altitude
903.167 km
Perigee altitude
826.114 km
Semi-major axis
7,242.777 km
Eccentricity
0.00532
Inclination
98.857°
RAAN
201.403°
Arg. of periapsis
241.6349°
True anomaly
118.48179°
Mean anomaly
117.945°
Eccentric anomaly
118.21356°
Mean motion
3.52116 °/min
Orbital period
102.24 mins
BSTAR
0.000048362
Loading maneuver chart data...
Computing Atmospheric mass density...

Documentation

Showing up to 5 results
|